Location: Maiden
(35.5760°N, 81.2120°W)
Time: 03:41:36
(UTC-04:00)

Vanguard 2 - Pass Details

Date: 04 August 2020
Orbit: 553 x 2937 km, 32.9° (Epoch: 20 September)

Event Time Altitude Azimuth Distance (km) Brightness Sun altitude
Rises 00:21:19 0° 249° (WSW) 6,237 12.2 -34.8°
Reaches altitude 10° 00:25:58 10° 247° (WSW) 4,919 11.6 -35.1°
Enters shadow 00:34:36 42° 234° (SW) 2,455 9.8 -35.6°
Maximum altitude 00:38:49 67° 169° (S) 1,697 - -35.9°
Drops below altitude 10° 00:46:22 10° 89° (E) 3,001 - -36.3°
Sets 00:48:34 0° 86° (E) 3,726 - -36.4°
